| time (UTC) | temp F | wind direction | speed knots | gust knots | rain 1hr in | rain 24hr in | rain mn in | humidity % | barometer mb |
| 20260503224508 | 67 | 249 | 6.1 | 13.9 | 0.00 | 0.00 | 0.00 | 47 | 1001.9 |
| 20260503223109 | 67 | 232 | 6.1 | 13.0 | 0.00 | 0.00 | 0.00 | 47 | 1002.0 |
| 20260503221557 | 67 | 223 | 6.1 | 16.5 | 0.00 | 0.00 | 0.00 | 46 | 1002.0 |
| 20260503220015 | 67 | 243 | 7.8 | 15.6 | 0.00 | 0.00 | 0.00 | 45 | 1002.1 |
| 20260503214602 | 66 | 221 | 8.7 | 17.4 | 0.00 | 0.00 | 0.00 | 47 | 1002.1 |
| 20260503213044 | 66 | 250 | 8.7 | 20.9 | 0.00 | 0.00 | 0.00 | 46 | 1002.2 |
| 20260503211503 | 66 | 252 | 8.7 | 14.8 | 0.00 | 0.00 | 0.00 | 45 | 1002.3 |
| 20260503210105 | 66 | 236 | 7.8 | 20.9 | 0.00 | 0.00 | 0.00 | 48 | 1002.5 |
| 20260503204515 | 66 | 213 | 7.8 | 17.4 | 0.00 | 0.00 | 0.00 | 46 | 1002.6 |
| 20260503203003 | 66 | 229 | 7.8 | 20.9 | 0.00 | 0.00 | 0.00 | 50 | 1003.0 |
| 20260503201601 | 65 | 234 | 9.6 | 18.2 | 0.00 | 0.00 | 0.00 | 52 | 1003.2 |
| 20260503200025 | 64 | 227 | 12.2 | 20.0 | 0.00 | 0.00 | 0.00 | 49 | 1003.6 |
| 20260503194618 | 64 | 194 | 10.4 | 22.6 | 0.00 | 0.00 | 0.00 | 51 | 1003.7 |
| 20260503193058 | 64 | 231 | 11.3 | 21.7 | 0.00 | 0.00 | 0.00 | 49 | 1004.0 |
| 20260503191541 | 64 | 227 | 12.2 | 19.1 | 0.00 | 0.00 | 0.00 | 47 | 1004.0 |
| 20260503190123 | 64 | 223 | 11.3 | 20.9 | 0.00 | 0.00 | 0.00 | 46 | 1004.1 |
| 20260503184552 | 63 | 290 | 10.4 | 20.9 | 0.00 | 0.00 | 0.00 | 47 | 1004.2 |
| 20260503183036 | 63 | 234 | 12.2 | 20.0 | 0.00 | 0.00 | 0.00 | 47 | 1004.2 |
| 20260503181621 | 62 | 226 | 10.4 | 26.1 | 0.00 | 0.00 | 0.00 | 48 | 1004.5 |
| 20260503180109 | 62 | 216 | 6.1 | 18.2 | 0.00 | 0.00 | 0.00 | 56 | 1004.9 |
| 20260503174518 | 61 | 208 | 10.4 | 18.2 | 0.00 | 0.00 | 0.00 | 55 | 1005.2 |
| 20260503173003 | 61 | 200 | 9.6 | 20.9 | 0.00 | 0.00 | 0.00 | 55 | 1005.6 |
| 20260503171602 | 59 | 179 | 10.4 | 22.6 | 0.00 | 0.00 | 0.00 | 55 | 1005.9 |
| 20260503160123 | 53 | 184 | 6.1 | 12.2 | 0.00 | 0.00 | 0.00 | 73 | 1007.2 |
| 20260503130120 | 52 | 246 | 7.8 | 14.8 | 0.00 | 0.00 | 0.00 | 59 | 1008.6 |
| 20260503100113 | 48 | 224 | 5.2 | 9.6 | 0.00 | 0.00 | 0.00 | 57 | 1009.6 |
| 20260503081600 | 48 | 234 | 3.5 | 8.7 | 0.00 | 0.00 | 0.00 | 58 | 1010.2 |
| 20260503071555 | 47 | 236 | 2.6 | 5.2 | 0.00 | 0.00 | 0.00 | 60 | 1010.8 |
| 20260503060137 | 45 | 221 | 1.7 | 3.5 | 0.00 | 0.00 | 0.00 | 63 | 1011.3 |
| 20260503054553 | 45 | 205 | 0.9 | 2.6 | 0.00 | 0.00 | 0.00 | 62 | 1011.4 |
| 20260503053006 | 45 | 202 | 1.7 | 3.5 | 0.00 | 0.00 | 0.00 | 62 | 1011.6 |
| 20260503051608 | 45 | 227 | 0.9 | 3.5 | 0.00 | 0.00 | 0.00 | 61 | 1011.7 |
| 20260503050038 | 46 | 221 | 1.7 | 4.3 | 0.00 | 0.00 | 0.00 | 60 | 1011.9 |
| 20260503044607 | 46 | 240 | 1.7 | 3.5 | 0.00 | 0.00 | 0.00 | 61 | 1011.8 |
| 20260503043050 | 46 | 252 | 0.9 | 3.5 | 0.00 | 0.00 | 0.00 | 61 | 1011.9 |
| 20260503041514 | 46 | 244 | 0.9 | 3.5 | 0.00 | 0.00 | 0.00 | 61 | 1012.0 |
| 20260503040121 | 44 | 263 | 0.9 | 2.6 | 0.00 | 0.00 | 0.00 | 65 | 1012.1 |
| 20260503034549 | 42 | 279 | 0.0 | 0.9 | 0.00 | 0.00 | 0.00 | 72 | 1012.3 |
| 20260503033036 | 41 | 238 | 0.0 | 0.0 | 0.00 | 0.00 | 0.00 | 75 | 1012.4 |
| 20260503031619 | 40 | 238 | 0.0 | 0.0 | 0.00 | 0.00 | 0.00 | 77 | 1012.4 |
| 20260503030101 | 41 | 238 | 0.0 | 0.0 | 0.00 | 0.00 | 0.00 | 74 | 1012.7 |
| 20260503024517 | 42 | 238 | 0.0 | 0.0 | 0.00 | 0.00 | 0.00 | 73 | 1012.6 |
| 20260503023002 | 43 | 238 | 0.0 | 0.0 | 0.00 | 0.00 | 0.00 | 70 | 1012.7 |
| 20260503021605 | 45 | 238 | 0.0 | 0.0 | 0.00 | 0.00 | 0.00 | 66 | 1012.7 |
| 20260503020025 | 47 | 238 | 0.0 | 0.0 | 0.00 | 0.00 | 0.00 | 60 | 1012.6 |
| 20260503014618 | 49 | 238 | 0.0 | 1.7 | 0.00 | 0.00 | 0.00 | 54 | 1012.5 |
| 20260503013058 | 50 | 233 | 0.0 | 2.6 | 0.00 | 0.00 | 0.00 | 52 | 1012.4 |
| 20260503011520 | 51 | 231 | 1.7 | 3.5 | 0.00 | 0.00 | 0.00 | 50 | 1012.3 |
| 20260503010003 | 52 | 231 | 0.9 | 2.6 | 0.00 | 0.00 | 0.00 | 49 | 1012.4 |
| 20260503004556 | 53 | 240 | 1.7 | 5.2 | 0.00 | 0.00 | 0.00 | 47 | 1012.5 |
| 20260503003042 | 54 | 257 | 1.7 | 5.2 | 0.00 | 0.00 | 0.00 | 46 | 1012.5 |
| 20260503001511 | 55 | 241 | 3.5 | 6.1 | 0.00 | 0.00 | 0.00 | 42 | 1012.6 |
| 20260503000109 | 55 | 257 | 4.3 | 7.8 | 0.00 | 0.00 | 0.00 | 41 | 1012.7 |
| 20260502234528 | 56 | 266 | 5.2 | 9.6 | 0.00 | 0.00 | 0.00 | 42 | 1012.7 |
| 20260502233007 | 57 | 248 | 4.3 | 10.4 | 0.00 | 0.00 | 0.00 | 38 | 1012.9 |
| 20260502231607 | 57 | 248 | 6.1 | 12.2 | 0.00 | 0.00 | 0.00 | 39 | 1012.9 |
| 20260502230048 | 56 | 169 | 5.2 | 10.4 | 0.00 | 0.00 | 0.00 | 38 | 1013.1 |